SPOT 7 (40053 NORAD) Tracking and Keplerian Element Data

This shows tracking and keplerian element data for the satellite.

Feedback or suggestion? Click here.




ElementValue
Catalog40053
NameSPOT 7
Epoch Orbit23677
Epoch Day344.45420763
Epoch Year2018
RAAN49.2574
Inclination98.1689
Eccentricity0.0001387
Argument of Perigee70.7938
Mean Anonmoly289.3414
Mean Motion14.58564413
Decay Rate-2.1E-07
L11 40053U 14034A 18344.45420763 -.00000021 00000-0 53021-5 0 9995
L22 40053 98.1689 49.2574 0001387 70.7938 289.3414 14.58564413236776

Live tracking and technical data element details for SPOT 7 (NORAD 40053). SPOT 7 can be tracked NOW for your location showing map with azimuth and elevation plus other details from your city location.

Track the satellite on the map from your city or location and see movement details for azimuth, elevation, latitude, longitude, range, height, and movement on the map or in text.







IsCatalogInMostPopularTable: catalog: 40053, numindb: 149
Update: records affected: 1



GetName: 40053 SPOT 7

Hit Count: updated at: Tue, 11 Dec 2018 03:33:32 GMT